Regional Weather Roundup
Issued by NWS

Home | Current Version | Previous Version | Graphics & Text | Print | Product List | Glossary On
Versions: 1 2 3 4 5 6 7 8 9 10 11 12 13 14 15 16 17 18 19 20 21 22 23 24 25 26 27 28 29 30 31 32 33 34 35 36 37 38 39 40 41 42 43 44 45 46 47 48 49 50
000
ASUS43 KOAX 031402
RWRNE

WEATHER ROUNDUP FOR NEBRASKA
NATIONAL WEATHER SERVICE OMAHA NE
900 AM CDT THU SEP 03 2015

NOTES: SATELLITE DATA IS BEING USED TO AUGMENT CLOUD COVER ABOVE
       12000 FEET.
       "FAIR" INDICATES FEW OR NO CLOUDS BELOW 12,000 FEET WITH NO
       SIGNIFICANT WEATHER AND/OR OBSTRUCTIONS TO VISIBILITY.

  * THESE STATIONS DO NOT REPORT WEATHER SUCH AS RAIN...SNOW OR FOG.

NEZ001>004-019>022-054>056-031500-
NEBRASKA PANHANDLE

CITY           SKY/WX    TMP DP  RH WIND       PRES   REMARKS
SCOTTSBLUFF    MOSUNNY   67  55  65 CALM      29.93R
ALLIANCE       SUNNY     63  54  72 CALM      29.92R
CHADRON        MOSUNNY   72  50  45 S3        29.85R
KIMBALL        MOSUNNY   67  48  51 W7        29.99R
SIDNEY         MOSUNNY   73  45  36 W7        29.96R
$$

NEZ057>060-069>072-079>082-031500-
SOUTHWEST NEBRASKA

CITY           SKY/WX    TMP DP  RH WIND       PRES   REMARKS
NORTH PLATTE   SUNNY     67  62  84 CALM      29.85S
IMPERIAL       MOSUNNY   66  57  72 N3        29.87R
LEXINGTON      SUNNY     70  63  78 CALM      29.84S
MCCOOK         SUNNY     70  58  65 SW3       29.84R
$$

NEZ005>010-023>029-035>040-094-031500-
NORTH CENTRAL NEBRASKA

CITY           SKY/WX    TMP DP  RH WIND       PRES   REMARKS
VALENTINE      SUNNY     71  60  68 CALM      29.83S
AINSWORTH      SUNNY     72  64  76 CALM      29.83S
BROKEN BOW     SUNNY     70  63  78 SE3       29.85R
ORD            SUNNY     68  64  87 CALM      29.82S
$$

NEZ041-046>049-061>064-073>077-083>087-031500-
SOUTH CENTRAL NEBRASKA

CITY           SKY/WX    TMP DP  RH WIND       PRES   REMARKS
GRAND ISLAND   SUNNY     76  62  62 S13       29.84S
AURORA         SUNNY     74  65  73 S9        29.84S
HASTINGS       MOSUNNY   75  62  64 S12       29.85R
HEBRON         SUNNY     77  61  58 S10G16    29.86S
HOLDREGE       SUNNY     74  60  61 S10       29.84S
KEARNEY *      SUNNY     73  61  64 S14       29.84S
YORK           SUNNY     73  66  78 S10G16    29.85S
$$

NEZ011>018-030>034-042>045-031500-
NORTHEAST NEBRASKA

CITY           SKY/WX    TMP DP  RH WIND       PRES   REMARKS
NORFOLK        SUNNY     73  68  84 SE5       29.83S
ALBION         SUNNY     70  65  83 SE3       29.84S
BLAIR          SUNNY     74  67  76 S10       29.87S
COLUMBUS *     SUNNY     75  63  64 S5        29.84S
FREMONT        SUNNY     76  67  73 SE6       29.86S
TEKAMAH        SUNNY     75  70  84 SE9       29.85S
WAYNE          SUNNY     72  69  89 S7        29.85S
$$

NEZ050>053-065>068-078-088>093-031500-
SOUTHEAST NEBRASKA

CITY           SKY/WX    TMP DP  RH WIND       PRES   REMARKS
LINCOLN        SUNNY     79  65  62 S12       29.85R
OMAHA EPPLEY   MOSUNNY   77  68  73 S14       29.87R
BEATRICE       SUNNY     77  65  67 S15       29.87S
FALLS CITY     PTSUNNY   78  68  71 S10       29.91R
NEBRASKA CITY  SUNNY     76  64  66 S13       29.89R
PLATTSMOUTH    MOSUNNY   74  66  75 SE12G17   29.87R
$$

NEZ044-045-051>053-067-031500-
OMAHA AREA

CITY           SKY/WX    TMP DP  RH WIND       PRES   REMARKS
OMAHA EPPLEY   MOSUNNY   77  68  73 S14       29.87R
BLAIR          SUNNY     74  67  76 S10       29.87S
FREMONT        SUNNY     76  67  73 SE6       29.86S
MILLARD        SUNNY     76  69  79 SE7       29.86S
OFFUTT AFB     SUNNY     75  69  80 SE7       29.86S
PLATTSMOUTH    MOSUNNY   74  66  75 SE12G17   29.87R
WAHOO          FAIR      75  69  80 SE7       29.85S
$$



USA.gov is the U.S. government's official web portal to all federal, state and local government web resources and services.